This is the latest recevied weather packets stored in our database for station/object EUGENE. If no packets are shown the sender has not sent any weather packets the latest 10 day(s).
| Time | Temp. | Humidity | Pressure | Rain* | Wind** | Luminosity | Snow |
|---|---|---|---|---|---|---|---|
| 1777041714 | 4.44° C | 97% | 1018.2 hPa | 0 mm | - | - | - |
| 1777040814 | 3.33° C | 96% | 1018.2 hPa | 0 mm | - | - | - |
| 1777039913 | 2.78° C | 96% | 1018.2 hPa | 0 mm | - | - | - |
| 1777039014 | 2.22° C | 95% | 1018.1 hPa | 0 mm | - | - | - |
| 1777038113 | 2.22° C | 95% | 1017.9 hPa | 0 mm | - | - | - |
| 1777037214 | 2.22° C | 95% | 1018 hPa | 0 mm | - | - | - |
| 1777036314 | 2.78° C | 95% | 1018.1 hPa | 0 mm | - | - | - |
| 1777035414 | 2.78° C | 95% | 1018 hPa | 0 mm | - | - | - |
| 1777034513 | 2.78° C | 95% | 1017.9 hPa | 0 mm | - | - | - |
| 1777033614 | 2.78° C | 95% | 1018 hPa | 0 mm | - | - | - |
| 1777032713 | 2.78° C | 94% | 1018.2 hPa | 0 mm | - | - | - |
| 1777031813 | 3.33° C | 95% | 1018.2 hPa | 0 mm | - | - | - |
| 1777030913 | 3.33° C | 94% | 1018.3 hPa | 0 mm | - | - | - |
| 1777030013 | 3.33° C | 94% | 1018.3 hPa | 0 mm | - | - | - |
| 1777029113 | 3.89° C | 94% | 1018.3 hPa | 0 mm | - | - | - |
| 1777028213 | 3.89° C | 94% | 1018.5 hPa | 0 mm | - | - | - |
| 1777027313 | 3.89° C | 94% | 1018.5 hPa | 0 mm | - | - | - |
| 1777026413 | 4.44° C | 94% | 1018.6 hPa | 0 mm | - | - | - |
| 1777025514 | 4.44° C | 94% | 1018.7 hPa | 0 mm | - | - | - |
| 1777024613 | 4.44° C | 94% | 1018.8 hPa | 0 mm | - | - | - |
| 1777023713 | 5° C | 94% | 1018.9 hPa | 0 mm | - | - | - |
| 1777022813 | 5° C | 94% | 1018.9 hPa | 0 mm | - | - | - |
| 1777021913 | 5° C | 94% | 1019 hPa | 0 mm | - | - | - |
| 1777021013 | 5.56° C | 93% | 1019 hPa | 0 mm | - | - | - |
| 1777020113 | 5.56° C | 93% | 1019.3 hPa | 0 mm | - | - | - |
* Rain latest hour (hover to see other rain measurements)
** Current wind speed in m/s (hover to see current wind gust speed)